CAPE
0 0 0 5 155 666 1293 1398 1313 1349 1205 1062 1191 1239 1049 1145 880 596 598 510 365 196
0 1 3 50 510 1042 1378 1374 1336 1273 1050 1006 1133 1089 1039 965 802 696 518 397 286 79
0 49 160 411 616 1067 1348 1416 1273 1032 925 1005 1151 908 848 736 638 552 356 153 113 88
57 254 711 798 731 898 1423 1361 1209 987 939 1124 982 756 683 562 353 234 81 117 39 5
516 856 978 899 778 1427 1464 1205 1040 1015 1008 1099 926 678 510 256 119 123 78 40 12 3
773 961 1152 1452 1641 1491 1182 1031 1000 976 1075 893 678 485 228 66 119 131 72 0 0 0
1204 1522 1521 1779 1752 1365 1052 1059 1027 1071 809 661 475 224 71 59 11 111 34 0 0 0
1552 1610 1586 1608 1476 1105 1154 1164 1052 696 375 247 228 89 20 1 6 12 2 4 0 0
1178 1394 1273 1042 952 986 862 716 497 206 43 56 133 51 9 20 27 23 11 0 0 0
989 991 760 403 261 141 144 145 36 0 0 5 2 0 9 15 14 12 3 0 0 0
776 585 423 239 130 72 30 12 0 0 0 0 0 0 3 1 5 0 0 0 0 0
477 320 138 91 49 23 12 2 4 0 0 0 0 0 0 0 0 0 0 0 0 1
310 203 79 24 3 8 8 13 1 2 0 0 0 0 0 0 0 0 0 0 0 0
177 78 13 3 6 2 6 10 3 0 0 0 0 0 0 0 1 2 0 0 0 0
CIN
-0 -0 -0 -240 -250 -230 -173 -174 -141 -130 -134 -132 -90 -102 -100 -71 -75 -86 -41 -31 -37 -55
-0 -104 -379 -264 -194 -177 -169 -133 -118 -124 -133 -116 -100 -98 -75 -66 -51 -41 -32 -33 -41 -80
-0 -334 -246 -198 -198 -163 -140 -107 -118 -133 -121 -104 -87 -100 -67 -63 -55 -28 -37 -66 -72 -65
-298 -240 -172 -158 -194 -151 -111 -108 -107 -120 -103 -74 -87 -81 -62 -56 -65 -64 -110 -70 -118 -53
-163 -134 -113 -144 -186 -111 -104 -120 -116 -85 -65 -53 -56 -64 -61 -79 -115 -91 -85 -86 -107 -48
-107 -84 -83 -70 -81 -100 -124 -119 -93 -75 -45 -48 -52 -55 -85 -146 -86 -58 -69 -5 -0 -0
-79 -49 -57 -49 -60 -107 -119 -87 -79 -38 -46 -43 -45 -63 -117 -134 -175 -46 -54 -0 -0 -0
-54 -45 -60 -65 -72 -98 -67 -45 -39 -60 -88 -76 -65 -85 -167 -25 -23 -102 -43 -46 -9 -0
-68 -47 -71 -97 -87 -67 -56 -65 -79 -111 -166 -111 -71 -117 -28 -34 -78 -48 -45 -0 -0 -0
-81 -81 -99 -166 -169 -189 -172 -159 -132 -0 -0 -150 -61 -7 -43 -47 -67 -52 -36 -0 -0 -0
-100 -102 -118 -150 -182 -183 -197 -190 -0 -0 -0 -0 -0 -0 -73 -32 -20 -0 -0 -0 -0 -0
-119 -128 -165 -182 -191 -187 -148 -32 -60 -11 -0 -0 -0 -0 -0 -0 -0 -0 -0 -0 -0 -44
-118 -142 -174 -212 -204 -35 -37 -47 -62 -87 -0 -0 -0 -0 -0 -0 -0 -0 -0 -0 -0 -0
-135 -176 -211 -174 -25 -33 -39 -47 -53 -0 -0 -0 -0 -0 -0 -0 -12 -39 -0 -0 -0 -0
Wind_Speed
26 27 30 28 23 20 15 12 8 7 6 5 4 3 3 3 3 4 6 5 6 7
28 30 27 22 18 16 14 10 8 6 5 5 3 2 2 3 3 5 6 5 6 7
27 27 23 19 16 13 11 9 7 6 5 3 2 0 1 3 4 4 5 5 5 7
24 23 18 15 14 12 10 8 6 5 3 2 1 2 2 3 4 3 3 4 4 5
20 20 16 14 14 11 9 7 5 3 3 2 3 2 2 4 3 3 4 4 4 4
18 16 14 14 12 10 8 6 5 4 3 4 3 1 3 2 4 3 4 4 4 4
18 14 12 11 10 9 8 7 5 5 5 3 0 2 2 4 4 3 5 3 4 4
13 12 10 10 8 7 9 7 7 6 2 1 1 2 3 4 4 4 4 5 6 5
11 11 9 7 7 8 7 7 4 1 2 2 2 2 3 3 4 4 4 5 6 6
12 10 9 8 7 7 6 4 3 1 2 3 4 3 4 4 4 4 5 6 6 7
12 10 9 9 9 6 4 3 4 4 5 5 4 4 5 5 5 6 6 6 7 8
12 11 10 9 6 4 5 6 6 6 6 5 5 5 6 6 6 6 6 7 8 9
12 11 9 7 7 5 8 8 7 6 6 6 5 6 7 7 7 7 8 8 9 10
10 9 8 7 8 8 7 8 6 4 7 6 6 7 7 8 7 8 9 8 9 9
Wind_Direction
266 271 275 276 280 283 271 266 256 264 274 288 266 295 323 335 346 355 356 0 352 346
270 273 272 270 273 272 263 252 247 257 268 284 260 288 335 2 8 0 357 359 355 345
268 271 269 262 262 257 252 245 238 256 277 253 204 311 64 19 9 7 8 10 5 356
269 267 262 251 252 246 240 233 231 251 234 204 166 120 65 17 2 32 52 24 14 17
264 263 253 248 251 237 225 231 225 197 195 169 139 107 5 352 11 78 91 74 54 33
257 254 248 248 229 217 208 196 179 175 164 145 136 49 344 20 18 94 112 89 51 44
254 246 234 216 200 198 188 174 168 149 140 136 123 335 12 358 6 89 119 68 22 27
240 228 208 193 197 186 171 162 147 140 127 357 82 87 19 28 55 79 62 13 358 17
207 193 181 173 164 163 165 152 154 196 340 28 35 74 49 23 37 48 41 14 9 15
175 179 176 165 155 160 153 154 153 358 32 52 52 55 48 43 42 50 26 18 32 13
168 170 162 152 146 153 151 138 112 98 87 75 32 33 23 49 49 28 34 38 42 23
162 156 153 148 150 141 124 115 107 102 90 67 52 15 28 51 54 48 36 34 36 36
156 151 150 148 137 125 117 110 105 94 77 69 34 9 42 71 68 52 44 34 24 24
149 147 145 141 128 121 110 105 98 71 67 48 16 24 53 85 71 69 55 45 42 38